Location: Arbon
(43.0005°N, 0.7472°E)
Time: 11:00:08
(UTC+00:00)

Courier 1B Rocket - Pass Details

Date: 30 November 2020
Orbit: 920 x 1202 km, 28.2° (Epoch: 19 January)

Event Time Altitude Azimuth Distance (km) Brightness Sun altitude
Rises 06:33:30 0° 242° (WSW) 4,092 7.9 -6.4°
Reaches altitude 10° 06:36:53 10° 230° (SW) 3,126 7.4 -5.9°
Maximum altitude 06:43:03 26° 178° (S) 2,133 7.1 -4.8°
Drops below altitude 10° 06:49:04 10° 125° (SE) 3,043 9.5 -3.9°
Sets 06:52:18 0° 113° (ESE) 3,964 11.4 -3.3°
